Menorca, Spain

9:47 AM CEST on March 28, 2017 (GMT +0200)
Menorca

Weather History for LEMH - October, 2012

Change the Weather History Date:

Monday, October 29, 2012

  Actual Average Record
Temperature  
Mean Temperature 53 °F -  
Max Temperature 60 °F 62 °F 78 °F (2006)
Min Temperature 46 °F 52 °F 46 °F (2012)
Degree Days  
Heating Degree Days 12    
Growing Degree Days 3 (Base 50)    
Moisture  
Dew Point 35 °F    
Average Humidity 47    
Maximum Humidity 71    
Minimum Humidity 31    
Precipitation  
Precipitation 0.00 in 0.10 in - ()
Sea Level Pressure  
Sea Level Pressure 29.95 in    
Wind  
Wind Speed 6 mph ()    
Max Wind Speed 14 mph    
Max Gust Speed 18 mph    
Visibility 6.9 miles    
Events      
Averages and records for this station are not official NWS values.
T = Trace of Precipitation, MM = Missing Value Source: Averaged Metar Reports

Daily Weather History Graph

Daily Weather History Graph

Search for Another Location

Airport or City:

Trip Planner

Search our weather history database for the weather conditions in past years. The results will help you decide how hot, cold, wet, or windy it might be!

Date:

Astronomy

Oct. 29, 2012 Rise Set
Actual Time 7:08 AM CET 5:44 PM CET
Civil Twilight 6:40 AM CET 6:12 PM CET
Nautical Twilight 6:09 AM CET 6:43 PM CET
Astronomical Twilight 5:37 AM CET 7:15 PM CET
Moon 5:27 PM CET (10/29) 6:44 AM CET (10/29)
Length of Visible Light 11h 31m
Length of Day
10h 35m
Full, 100% of the Moon is Illuminated
Oct 29
Full
Oct 29
Full
Nov 7
Last Quarter
Nov 13
New
Nov 20
First Quarter

Hourly Weather History & Observations

Time (CET) Temp. Windchill Dew Point Humidity Pressure Visibility Wind Dir Wind Speed Gust Speed Precip Events Conditions
1:00 AM - - - %  in 9 mi North 11.5 mph - -   Scattered Clouds
1:00 AM 51.8 °F - 35.6 °F 54% 29.95 in - North 10.4 mph - N/A   Clear
4:00 AM 50.0 °F - 28.4 °F 43% 29.95 in - North 10.4 mph - N/A   Clear
5:00 AM 50.0 °F - 30.2 °F 47% 29.92 in - NNE 9.2 mph - N/A   Clear
5:30 AM 48.2 °F - 32.0 °F 54% 29.92 in - North 6.9 mph - N/A   Clear
6:00 AM 48.2 °F - 30.2 °F 50% 29.92 in - North 4.6 mph - N/A   Clear
6:30 AM 48.2 °F - 30.2 °F 50% 29.95 in 6.2 mi North 3.5 mph - N/A   Partly Cloudy
7:00 AM - - - %  in 14 mi NNW 3.5 mph - -   Scattered Clouds
7:00 AM 48.2 °F - 30.2 °F 50% 29.95 in 6.2 mi North 3.5 mph - N/A   Partly Cloudy
7:30 AM 46.4 °F 45.2 °F 33.8 °F 62% 29.95 in 6.2 mi NNW 3.5 mph - N/A   Partly Cloudy
8:00 AM 51.8 °F - 33.8 °F 50% 29.95 in 6.2 mi WNW 3.5 mph - N/A   Partly Cloudy
8:30 AM 55.4 °F - 37.4 °F 51% 29.98 in 6.2 mi West 4.6 mph - N/A   Partly Cloudy
9:00 AM 57.2 °F - 37.4 °F 48% 29.98 in 6.2 mi NW 5.8 mph - N/A   Scattered Clouds
9:30 AM 59.0 °F - 37.4 °F 45% 29.98 in 6.2 mi North 6.9 mph - N/A   Partly Cloudy
10:00 AM 59.0 °F - 35.6 °F 42% 29.98 in 6.2 mi North 13.8 mph - N/A   Partly Cloudy
10:30 AM 59.0 °F - 35.6 °F 42% 29.98 in 6.2 mi NNW 12.7 mph - N/A   Partly Cloudy
11:00 AM 59.0 °F - 32.0 °F 36% 29.98 in 6.2 mi NNW 12.7 mph - N/A   Partly Cloudy
11:30 AM 59.0 °F - 30.2 °F 34% 29.98 in 6.2 mi NNW 12.7 mph - N/A   Partly Cloudy
12:00 PM 60.8 °F - 33.8 °F 36% 29.98 in 6.2 mi NNW 10.4 mph - N/A   Partly Cloudy
12:30 PM 60.8 °F - 30.2 °F 31% 29.98 in 6.2 mi NNW 8.1 mph - N/A   Partly Cloudy
1:00 PM - - - %  in 16 mi North 6.9 mph - -   Scattered Clouds
1:00 PM 60.8 °F - 30.2 °F 31% 29.98 in 6.2 mi NNW 6.9 mph - N/A   Partly Cloudy
1:30 PM 60.8 °F - 30.2 °F 31% 29.95 in 6.2 mi Variable 5.8 mph 18.4 mph N/A   Partly Cloudy
2:00 PM 60.8 °F - 30.2 °F 31% 29.95 in 6.2 mi Variable 4.6 mph - N/A   Partly Cloudy
2:30 PM 60.8 °F - 33.8 °F 36% 29.95 in 6.2 mi WNW 5.8 mph - N/A   Partly Cloudy
3:00 PM 60.8 °F - 33.8 °F 36% 29.95 in 6.2 mi West 8.1 mph - N/A   Partly Cloudy
3:30 PM 60.8 °F - 35.6 °F 39% 29.95 in 6.2 mi Variable 5.8 mph - N/A   Partly Cloudy
4:00 PM 60.8 °F - 35.6 °F 39% 29.95 in 6.2 mi WSW 3.5 mph - N/A   Partly Cloudy
4:30 PM 60.8 °F - 37.4 °F 42% 29.95 in 6.2 mi WSW 3.5 mph - N/A   Partly Cloudy
5:00 PM 59.0 °F - 39.2 °F 48% 29.92 in 6.2 mi Variable 2.3 mph - N/A   Partly Cloudy
5:30 PM 57.2 °F - 39.2 °F 51% 29.92 in 6.2 mi Variable 1.2 mph - N/A   Partly Cloudy
6:00 PM 55.4 °F - 41.0 °F 58% 29.92 in 6.2 mi Calm Calm - N/A   Partly Cloudy
6:30 PM 53.6 °F - 41.0 °F 62% 29.92 in 6.2 mi SW 3.5 mph - N/A   Partly Cloudy
7:00 PM - - - %  in 7 mi South 1.2 mph - -   Clear
7:00 PM 55.4 °F - 41.0 °F 58% 29.92 in - Variable 1.2 mph - N/A   Clear
7:30 PM 55.4 °F - 41.0 °F 58% 29.92 in - Variable 2.3 mph - N/A   Clear
8:00 PM 55.4 °F - 41.0 °F 58% 29.92 in - Variable 2.3 mph - N/A   Clear
8:30 PM 51.8 °F - 41.0 °F 67% 29.92 in - Variable 1.2 mph - N/A   Clear
9:30 PM 51.8 °F - 42.8 °F 71% 29.92 in 6.2 mi Calm Calm - N/A   Partly Cloudy
10:00 PM 53.6 °F - 42.8 °F 67% 29.92 in 6.2 mi Calm Calm - N/A   Partly Cloudy